TimePDT,TemperatureF,Dew PointF,Humidity,Sea Level PressureIn,VisibilityMPH,Wind Direction,Wind SpeedMPH,Gust SpeedMPH,PrecipitationIn,Events,Conditions,WindDirDegrees,DateUTC
12:15 AM,30.2,15.8,55,30.28,10.0,NW,4.6,-,N/A,,Clear,310,2013-10-16 07:15:00
12:35 AM,28.4,15.8,59,30.28,10.0,NW,3.5,-,N/A,,Clear,310,2013-10-16 07:35:00
12:55 AM,26.6,14.0,59,30.28,10.0,Calm,Calm,-,N/A,,Clear,0,2013-10-16 07:55:00
1:15 AM,28.4,15.8,59,30.28,10.0,NNW,3.5,-,N/A,,Clear,340,2013-10-16 08:15:00
1:35 AM,26.6,14.0,59,30.28,10.0,NNW,3.5,-,N/A,,Clear,330,2013-10-16 08:35:00
1:55 AM,24.8,14.0,64,30.28,10.0,NNW,3.5,-,N/A,,Clear,330,2013-10-16 08:55:00
2:15 AM,24.8,14.0,64,30.28,10.0,NW,3.5,-,N/A,,Clear,320,2013-10-16 09:15:00
2:35 AM,24.8,12.2,59,30.27,10.0,North,3.5,-,N/A,,Clear,350,2013-10-16 09:35:00
2:55 AM,23.0,12.2,63,30.26,10.0,North,-9999.0,-,N/A,,Clear,0,2013-10-16 09:55:00
3:15 AM,21.2,12.2,68,30.26,10.0,North,-9999.0,-,N/A,,Clear,0,2013-10-16 10:15:00
3:35 AM,23.0,12.2,63,30.26,10.0,North,-9999.0,-,N/A,,Clear,0,2013-10-16 10:35:00
3:55 AM,21.2,10.4,63,30.26,10.0,NNW,3.5,-,N/A,,Clear,340,2013-10-16 10:55:00
4:15 AM,17.6,10.4,73,30.25,10.0,NNW,3.5,-,N/A,,Clear,340,2013-10-16 11:15:00
4:35 AM,15.8,8.6,73,30.25,10.0,Calm,Calm,-,N/A,,Clear,0,2013-10-16 11:35:00
4:55 AM,15.8,8.6,73,30.25,10.0,Calm,Calm,-,N/A,,Clear,0,2013-10-16 11:55:00
5:15 AM,17.6,8.6,68,30.25,10.0,North,4.6,-,N/A,,Clear,360,2013-10-16 12:15:00
5:35 AM,15.8,6.8,68,30.26,10.0,NNW,4.6,-,N/A,,Clear,340,2013-10-16 12:35:00
5:55 AM,15.8,8.6,73,30.26,10.0,Calm,Calm,-,N/A,,Clear,0,2013-10-16 12:55:00
6:15 AM,17.6,8.6,68,30.26,10.0,Calm,Calm,-,N/A,,Clear,0,2013-10-16 13:15:00
6:35 AM,14.0,5.0,67,30.27,10.0,Calm,Calm,-,N/A,,Clear,0,2013-10-16 13:35:00
6:55 AM,17.6,8.6,68,30.28,10.0,Calm,Calm,-,N/A,,Clear,0,2013-10-16 13:55:00
7:15 AM,14.0,6.8,73,30.28,10.0,NW,4.6,-,N/A,,Clear,320,2013-10-16 14:15:00
7:35 AM,12.2,5.0,73,30.29,10.0,Calm,Calm,-,N/A,,Clear,0,2013-10-16 14:35:00
7:55 AM,17.6,8.6,68,30.29,10.0,Calm,Calm,-,N/A,,Clear,0,2013-10-16 14:55:00
8:15 AM,24.8,12.2,59,30.30,10.0,Calm,Calm,-,N/A,,Clear,0,2013-10-16 15:15:00
8:35 AM,28.4,12.2,51,30.30,10.0,Calm,Calm,-,N/A,,Clear,0,2013-10-16 15:35:00
8:55 AM,32.0,17.6,55,30.30,10.0,SE,3.5,-,N/A,,Clear,130,2013-10-16 15:55:00
9:15 AM,33.8,15.8,48,30.30,10.0,SE,3.5,-,N/A,,Clear,130,2013-10-16 16:15:00
9:35 AM,37.4,15.8,41,30.31,10.0,SSE,3.5,-,N/A,,Clear,150,2013-10-16 16:35:00
9:55 AM,41.0,12.2,31,30.30,10.0,SSE,5.8,-,N/A,,Clear,150,2013-10-16 16:55:00
10:15 AM,44.6,14.0,29,30.30,10.0,SE,5.8,-,N/A,,Clear,130,2013-10-16 17:15:00
10:35 AM,50.0,14.0,24,30.30,10.0,SE,6.9,-,N/A,,Clear,130,2013-10-16 17:35:00
10:55 AM,50.0,12.2,22,30.29,10.0,SSE,6.9,-,N/A,,Clear,160,2013-10-16 17:55:00
11:15 AM,51.8,12.2,21,30.29,10.0,SE,4.6,-,N/A,,Clear,130,2013-10-16 18:15:00
11:35 AM,-9999,-9999,N/A,-9999,-9999.0,North,-9999.0,-,N/A,,Unknown,0,2013-10-16 18:35:00
11:55 AM,-9999,-9999,N/A,-9999,-9999.0,North,-9999.0,-,N/A,,Unknown,0,2013-10-16 18:55:00
12:15 PM,57.2,10.4,16,-9999,10.0,North,-9999.0,-,N/A,,Clear,0,2013-10-16 19:15:00
12:35 PM,57.2,10.4,16,30.27,10.0,ESE,5.8,-,N/A,,Clear,110,2013-10-16 19:35:00
12:55 PM,59.0,8.6,14,-9999,10.0,North,-9999.0,-,N/A,,Clear,0,2013-10-16 19:55:00
1:15 PM,60.8,6.8,12,30.25,10.0,South,4.6,-,N/A,,Clear,170,2013-10-16 20:15:00
1:35 PM,60.8,8.6,13,30.24,10.0,East,8.1,-,N/A,,Clear,100,2013-10-16 20:35:00
1:55 PM,60.8,8.6,13,30.24,10.0,ESE,8.1,-,N/A,,Clear,110,2013-10-16 20:55:00
2:15 PM,60.8,8.6,13,30.23,10.0,ESE,10.4,-,N/A,,Clear,110,2013-10-16 21:15:00
2:35 PM,62.6,8.6,12,30.23,10.0,ESE,8.1,-,N/A,,Clear,120,2013-10-16 21:35:00
2:55 PM,60.8,10.4,14,30.23,10.0,ESE,10.4,-,N/A,,Unknown,110,2013-10-16 21:55:00
3:15 PM,60.8,10.4,14,30.23,10.0,ESE,10.4,17.3,N/A,,Clear,110,2013-10-16 22:15:00
3:35 PM,60.8,10.4,14,30.23,10.0,ESE,12.7,-,N/A,,Clear,110,2013-10-16 22:35:00
3:55 PM,59.0,10.4,15,30.22,10.0,ESE,12.7,17.3,N/A,,Clear,110,2013-10-16 22:55:00
4:15 PM,59.0,10.4,15,30.22,10.0,East,13.8,-,N/A,,Clear,100,2013-10-16 23:15:00
4:35 PM,57.2,10.4,16,30.23,10.0,ESE,11.5,-,N/A,,Clear,110,2013-10-16 23:35:00
4:55 PM,57.2,12.2,17,30.23,10.0,ESE,12.7,16.1,N/A,,Clear,120,2013-10-16 23:55:00
5:15 PM,55.4,10.4,17,30.23,10.0,ESE,9.2,-,N/A,,Clear,120,2013-10-17 00:15:00
5:35 PM,53.6,12.2,19,30.23,10.0,ESE,9.2,-,N/A,,Clear,110,2013-10-17 00:35:00
5:55 PM,51.8,12.2,21,30.23,10.0,ESE,8.1,-,N/A,,Clear,120,2013-10-17 00:55:00
6:15 PM,50.0,12.2,22,30.24,10.0,ESE,8.1,-,N/A,,Clear,110,2013-10-17 01:15:00
6:35 PM,46.4,12.2,25,30.24,10.0,SSE,4.6,-,N/A,,Clear,150,2013-10-17 01:35:00
6:55 PM,46.4,12.2,25,30.25,10.0,Calm,Calm,-,N/A,,Clear,0,2013-10-17 01:55:00
7:15 PM,41.0,10.4,29,30.26,10.0,Calm,Calm,-,N/A,,Clear,0,2013-10-17 02:15:00
7:35 PM,39.2,8.6,28,30.26,10.0,Calm,Calm,-,N/A,,Clear,0,2013-10-17 02:35:00
7:55 PM,39.2,8.6,28,30.27,10.0,Calm,Calm,-,N/A,,Clear,0,2013-10-17 02:55:00
8:15 PM,41.0,10.4,29,30.27,10.0,Calm,Calm,-,N/A,,Clear,0,2013-10-17 03:15:00
8:35 PM,39.2,10.4,31,30.27,10.0,North,4.6,-,N/A,,Clear,350,2013-10-17 03:35:00
8:55 PM,37.4,10.4,33,30.28,10.0,North,4.6,-,N/A,,Clear,350,2013-10-17 03:55:00
9:15 PM,37.4,14.0,38,30.28,10.0,Calm,Calm,-,N/A,,Clear,0,2013-10-17 04:15:00
9:35 PM,35.6,12.2,38,30.28,10.0,Calm,Calm,-,N/A,,Clear,0,2013-10-17 04:35:00
9:55 PM,35.6,15.8,44,30.27,10.0,Calm,Calm,-,N/A,,Clear,0,2013-10-17 04:55:00
10:15 PM,37.4,17.6,45,30.27,10.0,Calm,Calm,-,N/A,,Clear,0,2013-10-17 05:15:00
10:35 PM,33.8,15.8,48,30.27,10.0,North,4.6,-,N/A,,Clear,360,2013-10-17 05:35:00
10:55 PM,35.6,15.8,44,30.26,10.0,Calm,Calm,-,N/A,,Clear,0,2013-10-17 05:55:00
11:15 PM,33.8,14.0,44,30.26,10.0,Calm,Calm,-,N/A,,Clear,0,2013-10-17 06:15:00
11:35 PM,32.0,12.2,44,30.26,10.0,NW,3.5,-,N/A,,Clear,310,2013-10-17 06:35:00
11:55 PM,32.0,12.2,44,30.26,10.0,Calm,Calm,-,N/A,,Clear,0,2013-10-17 06:55:00